STARLINK-32267 (60363 NORAD) Tracking and Keplerian Element Data

This shows tracking and keplerian element data for the satellite.

Feedback or suggestion? Click here.




ElementValue
Catalog60363
NameSTARLINK-32267
Epoch Orbit1197
Epoch Day286.44179956
Epoch Year2024
RAAN178.8079
Inclination53.1613
Eccentricity0.0001167
Argument of Perigee76.3241
Mean Anonmoly283.7893
Mean Motion15.39610952
Decay Rate-6.96E-06
L11 60363U 24138J 24286.44179956 -.00000696 00000+0 -74334-5 0 9991
L22 60363 53.1613 178.8079 0001167 76.3241 283.7893 15.39610952 11976



Live tracking and technical data element details for STARLINK-32267 (NORAD 60363). STARLINK-32267 can be tracked NOW for your location showing map with azimuth and elevation plus other details from your city location.







IsCatalogInMostPopularTable: catalog: 60363, numindb: 8
Update: records affected: 1



GetName: 60363 STARLINK-32267

Hit Count: updated at: Wed, 04 Dec 2024 19:08:42 GMT